Погода в Пуксоозере

Россия / Архангельская область     62°35′24″N   40°36′26″E
темп.,
°C
ветер,
м/с
пор.,
м/с
влажн.,
%
обл.,
%
осадки,
мм/ч
давл.,
гПа
погр.,
м
21 января, пт
пт2100:00−2ю41297100 0.9 993619
03:00−3ю51296100 2.4 994672
06:00−4ю41193100 0.2 995606
09:00−4ю41095100 0.4 997499
12:00−4ю3995100 0.1 999415
15:00−5ю3796100 0.2 1002292
18:00−7ююв2697100 0.1 1004177
21:00−7ююв2597100 0.1 1006138
22 января, сб
сб2200:00−7юв2597100 0.3 1008186
03:00−8вюв259797 0.5 1009145
06:00−12вюв259758 0.0 101276
09:00−15вюв229874 0.0 101440
12:00−12вюв139648 0.0 101595
15:00−14в119862 0.0 10179
18:00−13вюв149783 0.0 101976
21:00−16ююв139854 0.0 102148
23 января, вс
вс2300:00−20ююв1110092 0.0 102311
03:00−21ююв21100100 0.0 102418
06:00−21ююв22100100 0.0 102536
09:00−21ю24100100 0.0 102757
12:00−16юз26100100 0.0 1028129
15:00−15ююз279992 0.1 1028140
18:00−16ююз3899100 0.0 1029137
21:00−16ю399994 0.0 1029165
24 января, пн
пн2400:00−14ююз4129694 0.0 1029260
03:00−13ююз4129676 0.0 1028273
06:00−12ююз4149598 0.1 1027384
09:00−9ююз51494100 0.5 1026435
12:00−8ююз51494100 0.3 1025421
15:00−7ююз51594100 0.6 1023493
18:00−7ююз51695100 0.1 1022541
21:00−6ююз61894100 0.2 1019593
25 января, вт
вт2500:00−6ююз71886100 0.0 1017642
03:00−7ююз61792100 0.1 1015661
06:00−6ююз61593100 0.3 1013680
09:00−7ююз51493100 0.5 1011650
12:00−6ююз51394100 0.6 1010610
15:00−6ююз51295100 1.8 1009596
18:00−6юз41195100 1.3 1009516
21:00−6юз31096100 1.5 1010403